Location: Piotrkow Trybunalski
(51.4000°N, 19.6830°E)
Time: 17:21:35
(UTC+02:00)

A-11 Canister half - Pass Details

Date: 11 February 2023
Orbit: 1512 x 1687 km, 47.2° (Epoch: 26 March)

Event Time Altitude Azimuth Distance (km) Brightness Sun altitude
Rises 06:20:36 0° 176° (S) 4,902 11.9 -7.1°
Reaches altitude 10° 06:25:48 10° 154° (SSE) 3,891 11.7 -6.4°
Maximum altitude 06:30:26 14° 126° (SE) 3,524 12.2 -5.7°
Drops below altitude 10° 06:34:59 10° 97° (E) 3,838 12.9 -5.0°
Sets 06:40:01 0° 76° (ENE) 4,790 12.7 -4.2°
